| time (UTC) | temp F | wind direction | speed MPH | gust MPH | rain 1hr in | rain 24hr in | rain mn in | humidity % | barometer mb |
| 20260505100655 | 59 | 215 | 2.0 | 11.0 | 0.00 | 1.08 | 0.00 | 61 | 1021.4 |
| 20260505094656 | 61 | 205 | 3.0 | 8.0 | 0.00 | 1.08 | 0.00 | 59 | 1021.0 |
| 20260505092655 | 61 | 163 | 9.0 | 18.0 | 0.00 | 1.08 | 0.00 | 56 | 1020.8 |
| 20260505090656 | 63 | 176 | 11.0 | 19.0 | 0.00 | 1.08 | 0.00 | 56 | 1020.3 |
| 20260505084656 | 64 | 150 | 11.0 | 21.0 | 0.00 | 1.08 | 0.00 | 54 | 1020.1 |
| 20260505082655 | 64 | 198 | 9.0 | 23.0 | 0.00 | 1.08 | 0.00 | 53 | 1020.0 |
| 20260505080656 | 66 | 153 | 11.0 | 21.0 | 0.00 | 1.08 | 0.00 | 51 | 1019.9 |
| 20260505074657 | 66 | 181 | 10.0 | 23.0 | 0.00 | 1.08 | 0.00 | 50 | 1019.9 |
| 20260505072657 | 68 | 172 | 11.0 | 23.0 | 0.00 | 1.08 | 0.00 | 49 | 1019.8 |
| 20260505070655 | 68 | 158 | 12.0 | 20.0 | 0.00 | 1.08 | 0.00 | 46 | 1019.7 |
| 20260505064655 | 70 | 143 | 12.0 | 26.0 | 0.00 | 1.08 | 0.00 | 45 | 1019.4 |
| 20260505062656 | 70 | 186 | 10.0 | 22.0 | 0.00 | 1.08 | 0.00 | 42 | 1018.9 |
| 20260505060657 | 70 | 167 | 12.0 | 18.0 | 0.00 | 1.08 | 0.00 | 39 | 1018.6 |
| 20260505054655 | 72 | 165 | 11.0 | 18.0 | 0.00 | 1.08 | 0.00 | 37 | 1018.5 |
| 20260505052656 | 72 | 155 | 7.0 | 12.0 | 0.00 | 1.08 | 0.00 | 34 | 1018.6 |
| 20260505050655 | 72 | 228 | 6.0 | 12.0 | 0.00 | 1.08 | 0.00 | 30 | 1018.7 |
| 20260505040656 | 70 | 242 | 4.0 | 10.0 | 0.00 | 1.08 | 0.00 | 26 | 1019.1 |
| 20260505034656 | 70 | 195 | 5.0 | 9.0 | 0.00 | 1.08 | 0.00 | 24 | 1019.1 |
| 20260505032657 | 68 | 173 | 9.0 | 13.0 | 0.00 | 1.08 | 0.00 | 23 | 1019.2 |
| 20260505030656 | 66 | 128 | 5.0 | 11.0 | 0.00 | 1.08 | 0.00 | 26 | 1019.2 |
| 20260505024656 | 66 | 205 | 5.0 | 9.0 | 0.00 | 1.08 | 0.00 | 25 | 1019.4 |
| 20260505022656 | 66 | 146 | 1.0 | 6.0 | 0.00 | 1.08 | 0.00 | 31 | 1019.4 |
| 20260505020656 | 63 | 142 | 2.0 | 9.0 | 0.00 | 1.08 | 0.00 | 27 | 1019.7 |
| 20260505014657 | 63 | 204 | 4.0 | 7.0 | 0.00 | 1.08 | 0.00 | 39 | 1019.8 |
| 20260505012656 | 61 | 197 | 3.0 | 8.0 | 0.00 | 1.08 | 0.00 | 41 | 1019.9 |
| 20260505011009 | 61 | 142 | 0.0 | 8.0 | 0.00 | 1.08 | 0.00 | 44 | 1020.0 |
| 20260505010655 | 61 | 188 | 3.0 | 8.0 | 0.00 | 1.08 | 0.00 | 42 | 1020.1 |
| 20260505010009 | 61 | 32 | 0.0 | 7.0 | 0.00 | 1.08 | 0.00 | 45 | 1020.0 |
| 20260505005009 | 59 | 73 | 1.0 | 6.0 | 0.00 | 1.08 | 0.00 | 47 | 1020.1 |
| 20260505004655 | 59 | 135 | 3.0 | 6.0 | 0.00 | 1.08 | 0.00 | 47 | 1020.1 |
| 20260505004008 | 59 | 347 | 0.0 | 5.0 | 0.00 | 1.08 | 0.00 | 47 | 1020.1 |
| 20260505003010 | 57 | 184 | 6.0 | 8.0 | 0.00 | 1.08 | 0.00 | 46 | 1020.2 |
| 20260505002656 | 57 | 212 | 0.0 | 6.0 | 0.00 | 1.08 | 0.00 | 49 | 1020.2 |
| 20260505000655 | 55 | 82 | 2.0 | 6.0 | 0.00 | 1.08 | 0.00 | 51 | 1020.2 |
| 20260504234655 | 54 | 129 | 1.0 | 7.0 | 0.00 | 1.08 | 0.00 | 53 | 1020.1 |
| 20260504232656 | 54 | 264 | 0.0 | 7.0 | 0.00 | 1.08 | 0.00 | 56 | 1020.0 |
| 20260504230656 | 52 | 158 | 3.0 | 8.0 | 0.00 | 1.08 | 0.00 | 62 | 1020.1 |
| 20260504225008 | 50 | 172 | 4.0 | 9.0 | 0.00 | 1.08 | 0.00 | 66 | 1019.9 |
| 20260504224657 | 50 | 193 | 2.0 | 9.0 | 0.00 | 1.08 | 0.00 | 67 | 1019.9 |
| 20260504222656 | 48 | 228 | 0.0 | 7.0 | 0.00 | 1.08 | 0.00 | 72 | 1019.7 |
| 20260504220655 | 48 | 114 | 2.0 | 7.0 | 0.00 | 1.08 | 0.00 | 73 | 1019.6 |
| 20260504214657 | 46 | 179 | 5.0 | 7.0 | 0.00 | 1.08 | 0.00 | 76 | 1019.5 |
| 20260504212656 | 46 | 156 | 6.0 | 7.0 | 0.00 | 1.08 | 0.00 | 78 | 1019.3 |
| 20260504210657 | 45 | 167 | 0.0 | 3.0 | 0.00 | 1.08 | 0.00 | 80 | 1018.8 |
| 20260504204656 | 45 | 271 | 2.0 | 5.0 | 0.00 | 1.08 | 0.00 | 82 | 1018.2 |
| 20260504202655 | 45 | 210 | 0.0 | 8.0 | 0.00 | 1.08 | 0.00 | 78 | 1017.7 |
| 20260504202009 | 45 | 308 | 5.0 | 10.0 | 0.00 | 1.08 | 0.00 | 78 | 1017.5 |
| 20260504201008 | 45 | 270 | 3.0 | 9.0 | 0.00 | 1.08 | 0.00 | 80 | 1017.2 |
| 20260504200656 | 43 | 263 | 4.0 | 9.0 | 0.00 | 1.08 | 0.00 | 80 | 1017.2 |
| 20260504194657 | 45 | 305 | 6.0 | 10.0 | 0.00 | 1.08 | 0.00 | 77 | 1016.6 |
| 20260504192656 | 45 | 281 | 5.0 | 10.0 | 0.00 | 1.08 | 0.00 | 75 | 1015.6 |
| 20260504190655 | 45 | 6 | 5.0 | 8.0 | 0.00 | 1.08 | 0.00 | 85 | 1015.2 |
| 20260504184656 | 45 | 302 | 6.0 | 10.0 | 0.00 | 1.08 | 0.00 | 85 | 1014.8 |
| 20260504182657 | 45 | 332 | 0.0 | 3.0 | 0.00 | 1.08 | 0.00 | 92 | 1014.6 |
| 20260504180656 | 45 | 242 | 3.0 | 5.0 | 0.00 | 1.08 | 0.00 | 95 | 1014.3 |
| 20260504174656 | 45 | 243 | 2.0 | 5.0 | 0.00 | 1.08 | 0.00 | 96 | 1013.9 |
| 20260504173009 | 45 | 218 | 0.0 | 5.0 | 0.00 | 1.08 | 0.00 | 98 | 1013.6 |
| 20260504172655 | 46 | 139 | 3.0 | 5.0 | 0.00 | 1.08 | 0.00 | 97 | 1013.4 |
| 20260504170657 | 46 | 242 | 0.0 | 5.0 | 0.00 | 1.08 | 0.00 | 96 | 1013.1 |
| 20260504150656 | 48 | 76 | 3.0 | 4.0 | 0.00 | 1.08 | 0.00 | 87 | 1012.0 |
| 20260504140657 | 50 | 340 | 0.0 | 4.0 | 0.00 | 1.81 | 1.08 | 79 | 1011.1 |
| 20260504130655 | 54 | 113 | 4.0 | 11.0 | 0.00 | 1.81 | 1.08 | 67 | 1010.2 |
| 20260504110656 | 54 | 225 | 7.0 | 14.0 | 0.00 | 1.81 | 1.08 | 65 | 1008.6 |